Location: Grand Bourg
(46.1602°N, 1.6447°E)
Time: 06:24:44
(UTC+00:00)

Daily predictions for brighter satellites

Satellite Brightness Start Highest point End
(mag) Time Altitude Azimuth Time Altitude Azimuth Time Altitude Azimuth
Cosmos 1680 Rocket 3.8 18:18:54 10° NNW 18:24:08 74° WSW 18:29:21 10° SSE
Abrixas rocket 2.0 18:25:38 10° W 18:28:27 69° NNW 18:31:19 10° ENE
Okean 2 Rocket 4.3 18:25:57 10° SE 18:29:28 23° E 18:32:58 10° NE
Tsikada Rocket 4.3 18:24:35 10° NNW 18:30:44 72° W 18:36:51 10° S
NOSS 2-2 (E) 3.6 18:27:43 10° S 18:30:58 38° ESE 18:34:32 10° NE
Cosmos 1544 3.6 18:30:58 10° SSW 18:34:36 65° W 18:38:15 10° N
USA 116 3.5 18:32:11 10° NNE 18:35:35 58° ESE 18:39:22 10° S
Okean-O 3.2 18:31:27 10° S 18:35:50 63° WSW 18:40:15 10° NNW
Okean 2 3.4 18:31:54 10° N 18:36:06 90° ESE 18:40:15 10° S
CZ-2C R/B 3.2 18:35:48 10° SSW 18:37:27 13° S 18:39:04 10° SSE
NOSS 2-2 (D) 3.6 18:36:26 10° S 18:39:40 36° ESE 18:43:08 10° NE
USA 102 4.5 18:39:50 10° SE 18:43:53 19° E 18:45:14 15° ENE
Iridium 4 Rocket 3.6 18:39:09 10° S 18:44:04 82° W 18:49:32 10° N
CENTAUR R/B 3.9 18:37:31 10° NNW 18:44:41 38° NNE 18:51:59 12° E
YAOGAN 1 2.9 18:40:53 10° S 18:45:11 69° WSW 18:49:31 10° NNW
Cosmos 1975 3.1 18:41:35 10° SSW 18:45:39 77° W 18:49:45 10° N
GP-B 4.2 18:42:17 10° N 18:46:35 50° W 18:50:52 10° SSW
H-2A R/B 1.9 18:44:25 10° SSE 18:49:20 72° ENE 18:54:24 10° N
SJ-11-01 4.2 18:45:13 10° SSE 18:49:56 78° ENE 18:54:39 10° N
CZ-4 R/B 2.6 18:46:30 10° S 18:50:36 49° W 18:54:42 10° NNW
Cosmos 1437 2.9 18:47:42 10° NNW 18:50:42 68° W 18:53:39 10° S
Cosmos 1674 4.4 18:48:33 10° NNE 18:51:00 16° ENE 18:52:10 14° E
ATLAS 3B R/B 4.3 18:46:06 10° NNW 18:51:04 21° NNE 18:56:09 10° ENE
DMSP B5D1-3 4.5 18:45:58 10° NNE 18:51:05 80° ESE 18:56:12 10° SSW
ISS -3.3 18:50:30 10° SW 18:53:41 41° SE 18:56:09 15° ENE
Cosmos 1536 Rocket 4.4 18:51:45 10° N 18:55:41 30° ENE 18:58:59 13° SE
Cosmos 1842 4.0 18:52:38 10° NNW 18:56:26 55° W 19:00:13 10° S
USA 238 DEB 4.2 18:49:33 10° NNW 18:56:29 49° NE 19:02:30 15° ESE
USA 238 4.2 18:49:40 10° NNW 18:56:35 49° NE 19:02:35 15° ESE
In-Cosmos 22 4.3 18:53:10 10° N 18:58:18 47° ENE 19:03:27 10° SSE
ARGOS 3.1 18:57:32 10° SSE 19:02:52 73° ENE 19:08:14 10° N
Cosmos 1025 Rocket 3.3 19:01:30 10° N 19:05:46 49° ENE 19:10:02 10° SSE
Cosmos 1782 Rocket 4.2 19:01:31 10° SSW 19:05:52 61° W 19:10:17 10° N
CZ-2C R/B 3.2 19:01:10 10° NNE 19:06:19 39° E 19:11:31 10° SSE
Cosmos 1707 2.6 19:05:12 10° N 19:09:04 74° E 19:12:52 10° SSE
Cosmos 2151 Rocket 3.9 19:06:34 10° SSE 19:10:45 42° E 19:14:59 10° NNE
USA 186 1.8 19:13:02 21° SSE 19:14:55 56° ENE 19:18:06 10° N
CREW DRAGON DEMO-1 DEB 4.3 19:13:53 10° WNW 19:16:35 28° N 19:18:00 19° NE
Ariane Rocket 3.0 19:12:55 10° SSE 19:17:50 61° ENE 19:22:51 10° N
SJ-6B 3.0 19:16:14 23° SE 19:18:12 46° ENE 19:21:49 10° N
CZ-2C R/B 4.0 19:13:53 10° S 19:18:57 51° W 19:24:20 10° NNW
Cosmos 1844 4.3 19:14:43 10° SSE 19:19:45 33° ESE 19:24:45 10° NE
FREGAT/IRIS 2.8 19:20:39 38° ENE 19:20:39 38° ENE 19:22:55 10° N
Cosmos 2263 Rocket 3.2 19:16:20 10° SW 19:21:41 47° WNW 19:27:06 10° NNE
Cosmos 1072 Rocket 4.5 19:15:50 10° S 19:22:03 86° E 19:28:26 10° N
Nadezhda 4 Rocket 4.0 19:17:17 10° N 19:23:22 61° ENE 19:29:17 10° SSE
NOSS 2-2 (C) 3.2 19:20:40 10° SW 19:24:10 76° NW 19:28:04 10° NE
NOSS 3-2 (A) 4.1 19:16:54 10° NW 19:24:21 71° NE 19:30:19 21° SE
MOS 1 4.3 19:21:25 13° SSE 19:26:32 65° ENE 19:32:11 10° N
Cosmos 1844 Rocket 2.8 19:23:04 10° S 19:28:22 47° ESE 19:33:43 10° NE
Cosmos 2034 Rocket 4.0 19:22:14 10° S 19:28:31 65° E 19:34:47 10° NNE
USA 102 3.1 19:24:06 16° SSE 19:29:31 74° WSW 19:29:59 59° WNW
Cosmos 2298 Rocket 4.0 19:25:32 10° S 19:30:48 66° ESE 19:36:07 10° NNE
SPOT 3 Rocket 4.0 19:32:57 30° ESE 19:34:51 41° ENE 19:39:40 10° N
Resurs 01 Rocket 2.4 19:42:54 33° ENE 19:43:08 33° ENE 19:47:08 10° N
USA 234 3.4 19:37:52 10° ENE 19:44:09 47° SE 19:50:25 10° SSW
Cosmos 1867 4.3 19:39:40 10° NW 19:44:55 49° WSW 19:49:02 16° S
Lacrosse 5 rocket 3.6 19:42:46 10° WNW 19:46:06 21° N 19:49:28 10° NE
MetOp-A 4.0 19:42:59 20° SSE 19:46:49 85° ENE 19:52:12 10° NNW
Cosmos 1833 Rocket 4.1 19:46:01 10° N 19:50:25 22° NE 19:51:25 21° ENE
OBJECT-B 1.2 19:52:34 52° NNE 19:52:34 52° NNE 19:55:13 10° N
Meteor 1-15 Rocket 4.1 19:47:21 10° S 19:52:56 73° E 19:58:39 10° NNE
Cosmos 1626 3.6 19:54:03 10° N 19:56:03 25° NNE 19:56:03 25° NNE
NOSS 3-2 (C) 4.0 19:51:42 10° NW 19:59:11 74° NE 20:03:03 35° SE
DMSP B5D2-2 4.0 19:54:44 10° NNE 20:00:04 88° WNW 20:05:22 10° SSW
ARIANE 5 R/B 3.8 20:01:02 27° NE 20:01:02 27° NE 20:03:55 10° N
Cosmos 2150 Rocket 4.2 19:55:09 10° SSW 20:00:31 78° WNW 20:06:00 10° NNE
Cosmos 1634 Rocket 4.1 19:59:03 36° SE 20:01:09 52° E 20:07:08 10° NNE
Abrixas rocket 3.5 20:01:08 10° WNW 20:03:00 34° NW 20:03:00 34° NW
BREEZE-M TANK 2.7 19:55:51 10° WSW 20:04:03 69° S 20:04:38 59° ESE
Cosmos 2285 Rocket 3.9 20:02:01 10° S 20:08:17 72° ESE 20:14:37 10° NNE
Cosmos 1125 Rocket 3.4 20:03:02 10° SSW 20:08:20 84° ESE 20:13:41 10° NNE
Okean 1 Rocket 2.9 20:08:19 67° SSE 20:08:50 79° E 20:13:21 10° NNE
Cosmos 1627 Rocket 4.4 20:11:09 10° N 20:17:35 78° E 20:19:38 46° SSE
Resurs 1-3 3.7 20:18:55 63° SSW 20:19:26 71° WSW 20:23:51 10° NNW
Cosmos 1092 Rocket 4.0 20:16:44 10° N 20:22:53 79° W 20:25:37 36° S
Cosmos 1805 3.9 20:24:13 53° NNW 20:24:13 53° NNW 20:27:27 10° N
Meteor 2-5 Rocket 3.7 20:18:25 10° NNW 20:24:05 87° W 20:25:27 54° S
Cosmos 2195 Rocket 4.4 20:18:50 10° N 20:25:08 85° W 20:27:20 43° S
ATLAS 2AS CENTAUR R/B 3.0 20:18:50 10° SSW 20:26:27 53° ESE 20:34:04 10° NE
Cosmos 1674 3.8 20:23:06 10° NNW 20:26:45 41° W 20:27:00 40° WSW
Cosmos 2026 Rocket 3.9 20:22:43 10° N 20:29:09 88° E 20:30:54 52° S
ISS -1.7 20:27:15 10° W 20:29:08 28° WNW 20:29:08 28° WNW
Cosmos 2082 Rocket 3.5 20:27:56 10° N 20:32:16 26° NE 20:32:16 26° NE
BREEZE-M DEB (TANK) 4.4 20:29:15 10° WSW 20:33:20 80° NNW 20:50:37 10° ENE
Meteor 1-22 Rocket 4.2 20:34:25 69° SSE 20:35:08 81° E 20:41:12 10° NNE
CENTAUR R/B 3.2 20:28:08 10° NW 20:36:16 81° SW 20:39:10 48° SSE
CZ-2C R/B 4.1 20:35:11 10° N 20:38:59 59° NNW 20:38:59 59° NNW
Cosmos 1428 Rocket 4.5 20:34:31 10° N 20:40:49 81° W 20:42:07 58° S
SPOT 1/Viking Rocket 4.2 20:43:21 44° NNE 20:43:21 44° NNE 20:47:14 10° N
ATLAS 3B R/B 3.0 20:36:45 10° NNW 20:43:24 51° NE 20:44:10 49° ENE
COSMOS 2406 3.4 20:37:58 10° NNW 20:43:10 60° NE 20:43:10 60° NE
Cosmos 2279 Rocket 4.0 20:44:35 66° ENE 20:44:35 66° ENE 20:50:19 10° NNE
CZ-2C R/B 4.3 20:41:35 10° N 20:46:32 35° WNW 20:51:31 10° SW
Meteor 1-24 Rocket 3.7 20:41:20 10° NNW 20:46:50 74° W 20:47:08 72° SW
Cosmos 2142 Rocket 4.3 20:47:06 80° SSE 20:47:25 84° E 20:53:41 10° N
USA 238 DEB 4.5 20:40:38 10° NW 20:47:33 49° WSW 20:49:57 37° SSW
USA 238 4.5 20:40:44 10° NW 20:47:39 49° WSW 20:50:02 37° SSW
Cosmos 1269 Rocket 4.1 20:43:02 10° NNW 20:48:00 74° WNW 20:48:00 74° WNW
Spot 2 Rocket 4.1 20:51:07 49° N 20:51:07 49° N 20:54:53 10° N
Exosat Rocket 4.4 20:49:20 10° SW 20:54:39 47° WNW 20:59:29 10° NNE
Terra 3.8 21:02:36 20° NNE 21:02:36 20° NNE 21:04:23 10° N
MetOp-B 4.4 21:01:41 64° WNW 21:01:41 64° WNW 21:06:31 10° NNW
Cosmos 2278 Rocket 4.5 21:07:57 13° NE 21:07:57 13° NE 21:08:29 10° NE
Lacrosse 4 Rocket 3.9 21:05:29 10° NNW 21:06:37 17° N 21:06:37 17° N
Cosmos 1844 Rocket 4.4 21:07:32 10° WSW 21:12:27 31° NW 21:17:25 10° N
Resurs 01 Rocket 3.6 21:20:28 25° WNW 21:20:28 25° WNW 21:23:27 10° NW
SPOT 5 4.4 21:28:43 34° N 21:28:43 34° N 21:31:42 10° N
Lacrosse 5 rocket 3.9 21:22:52 10° NW 21:25:05 21° NNW 21:25:05 21° NNW
USA 234 3.5 21:24:44 38° NE 21:27:19 65° NNW 21:33:46 10° WSW
Cosmos 1833 Rocket 3.7 21:29:18 10° NNW 21:33:07 44° NW 21:33:07 44° NW
Cosmos 2082 Rocket 4.0 22:11:35 10° NNW 22:14:06 27° NW 22:14:06 27° NW
ATLAS 2AS CENTAUR R/B 3.7 22:09:57 10° WSW 22:17:39 49° NW 22:25:14 10° NE
ATLAS 3B R/B 4.1 22:27:37 10° NW 22:31:25 31° WNW 22:31:25 31° WNW
Cosmos 2278 Rocket 4.4 22:49:46 21° NNW 22:49:46 21° NNW 22:52:13 10° N
